Main page
METAR-TAF:

METAR-TAF

Airports :

Fairford, England

RAF Fairford

latitude: 51-41N, longitude: 001-47W, elevation: 87 m

Current weather observation

The report was made 21 minutes ago, at 23:56 UTC
Wind 3 kt from the West
Temperature 9°C
Humidity 87%
Pressure 1020 hPa
Visibility 10 km or more
Clear sky

METAR: EGVA 192356Z AUTO 27003KT 9999 CLR 09/07 A3013 RMK AO2 SLP207 T00870073 10144 20077 401730077 58008 $

Time: 01:17 (00:17 UTC)


TAF: missing

Weather observations and forecasts of more than 4000 airports (METAR and TAF reports).

The available stations are represented by yellow and red dots on the map.

Hover mouse over dot to see the name of the station.

Then click to see weather observations and forecasts.

To change the map : click on the green buttons with a black cross to zoom in, on the green button with a dash to zoom out, or on the green arrows for adjacent maps.


METAR-TAF: